Weather History for Orange, MA

Change the Weather History Date:

Thursday, August 4, 2011

  Actual Average Record
Temperature  
Mean Temperature 72 °F -  
Max Temperature 84 °F 79 °F 91 °F (2012)
Min Temperature 61 °F 57 °F 50 °F (1999)
Cooling Degree Days 6    
Growing Degree Days 22 (Base 50)    
Moisture  
Dew Point 61 °F    
Average Humidity 75    
Maximum Humidity 97    
Minimum Humidity 39    
Precipitation  
Precipitation 0.00 in - - ()
Sea Level Pressure  
Sea Level Pressure 29.91 in    
Wind  
Wind Speed 1 mph (ENE)    
Max Wind Speed 9 mph    
Max Gust Speed -    
Visibility 10 miles    
Events      
Averages and records for this station are not official NWS values.
T = Trace of Precipitation, MM = Missing Value Source: NWS Daily Summary

Daily Weather History Graph

Daily Weather History Graph

Search for Another Location

Airport:

Trip Planner

Search our weather history database for the weather conditions in past years. The results will help you decide how hot, cold, wet, or windy it might be!

Date:

Astronomy

Aug. 04, 2011 Rise Set
Actual Time 5:43 AM EDT 8:05 PM EDT
Civil Twilight 5:12 AM EDT 8:37 PM EDT
Nautical Twilight 4:33 AM EDT 9:16 PM EDT
Astronomical Twilight 3:49 AM EDT 9:59 PM EDT
Moon 11:40 AM EDT (8/4) 10:28 PM EDT (8/4)
Length of Visible Light 15h 25m
Length of Day
14h 22m
Waxing Crescent, 30% of the Moon is Illuminated
Aug 4
Waxing Crescent
Aug 6
First Quarter
Aug 13
Full
Aug 21
Last Quarter
Aug 28
New

Hourly Weather History & Observations

Time (EDT) Temp. Heat Index Dew Point Humidity Pressure Visibility Wind Dir Wind Speed Gust Speed Precip Events Conditions
12:52 AM 66.9 °F - 63.0 °F 87% 29.82 in 10.0 mi Calm Calm - N/A   Scattered Clouds
1:52 AM 64.9 °F - 62.1 °F 90% 29.83 in 10.0 mi Calm Calm - N/A   Clear
2:52 AM 64.0 °F - 62.1 °F 93% 29.84 in 10.0 mi Calm Calm - N/A   Partly Cloudy
3:04 AM 64.4 °F - 62.6 °F 94% 29.84 in 10.0 mi Calm Calm - N/A   Mostly Cloudy
3:38 AM 64.4 °F - 62.6 °F 94% 29.85 in 10.0 mi Calm Calm - N/A   Partly Cloudy
3:52 AM 63.0 °F - 61.0 °F 93% 29.84 in 10.0 mi Calm Calm - N/A   Partly Cloudy
4:52 AM 61.0 °F - 60.1 °F 97% 29.86 in 10.0 mi Calm Calm - N/A   Partly Cloudy
5:52 AM 61.0 °F - 60.1 °F 97% 29.88 in 9.0 mi Calm Calm - N/A   Clear
6:20 AM 62.6 °F - 60.8 °F 94% 29.90 in 10.0 mi Calm Calm - N/A   Mostly Cloudy
6:52 AM 63.0 °F - 61.0 °F 93% 29.91 in 10.0 mi Calm Calm - N/A   Overcast
7:48 AM 64.4 °F - 60.8 °F 88% 29.92 in 10.0 mi Calm Calm - N/A   Mostly Cloudy
8:12 AM 66.2 °F - 60.8 °F 83% 29.92 in 10.0 mi Calm Calm - N/A   Scattered Clouds
8:52 AM 70.0 °F - 61.0 °F 73% 29.93 in 10.0 mi NNE 4.6 mph - N/A   Clear
9:52 AM 73.9 °F - 62.1 °F 66% 29.92 in 10.0 mi Calm Calm - N/A   Mostly Cloudy
10:24 AM 73.4 °F - 60.8 °F 65% 29.93 in 10.0 mi Calm Calm - N/A   Scattered Clouds
11:52 AM 75.9 °F - 61.0 °F 60% 29.93 in 10.0 mi NNE 4.6 mph - N/A   Mostly Cloudy
12:52 PM 80.1 °F 80.9 °F 60.1 °F 50% 29.92 in 10.0 mi Variable 5.8 mph - N/A   Partly Cloudy
1:52 PM 80.1 °F 81.1 °F 61.0 °F 52% 29.93 in 10.0 mi WNW 9.2 mph - N/A   Partly Cloudy
2:52 PM 82.0 °F 82.0 °F 57.9 °F 44% 29.92 in 10.0 mi ENE 5.8 mph - N/A   Clear
3:52 PM 80.1 °F 81.1 °F 61.0 °F 52% 29.93 in 10.0 mi NE 3.5 mph - N/A   Mostly Cloudy
4:52 PM 82.9 °F 82.1 °F 55.9 °F 39% 29.93 in 10.0 mi Variable 3.5 mph - N/A   Partly Cloudy
5:52 PM 79.0 °F - 60.1 °F 52% 29.95 in 10.0 mi ESE 5.8 mph - N/A   Mostly Cloudy
6:52 PM 77.0 °F - 63.0 °F 62% 29.96 in 10.0 mi Calm Calm - N/A   Partly Cloudy
7:52 PM 75.0 °F - 63.0 °F 66% 29.97 in 10.0 mi SE 4.6 mph - N/A   Overcast
10:52 PM 69.1 °F - 62.1 °F 78% 30.03 in 10.0 mi SSE 5.8 mph - N/A   Overcast
11:52 PM 68.0 °F - 61.0 °F 78% 30.05 in 10.0 mi ESE 4.6 mph - N/A   Mostly Cloudy